Flag for Canada Weather past 2 weeks in Abbotsford, British Columbia, Canada

Now
57 °F

Light rain. Cloudy.


Feels Like: 56 °F
Forecast: 55 / 62 °F
Wind: 7 mph from Southeast

Location: Abbotsford

Current Time: Sep 1, 2015 at 3:59:01 PM

Latest Report: Sep 1, 2015 at 3:00 PM


Visibility: 10 mi

Pressure: 29.81 "Hg

Humidity: 94%

Dew point: 55 °F

Location of AbbotsfordLocation

Historic Weather in Abbotsford — Graph

°F

Abbotsford temperature yesterday

Maximum temperature yesterday: 61 °F (at 1:00 AM)
Minimum temperature yesterday: 57 °F (at 5:00 AM)
Average temperature yesterday: 60 °F

Past Weeks' High & Low Weather Summary

 TemperatureHumidityPressure
High90 °F (Aug 18, 4:00 PM)100% (Aug 28, 7:00 AM)30.13 "Hg (Aug 28, 7:00 AM)
Low48 °F (Aug 25, 7:00 AM)27% (Aug 18, 7:00 PM)29.48 "Hg (Aug 29, 6:00 AM)
Average65 °F69%29.93 "Hg
* Reported Aug 17 2:00 PM — Sep 1 2:00 PM, Abbotsford, Weather by CustomWeather, © 2015

Note: Actual official high and low records may vary slightly from our data, if they occured in-between our weather recording intervals... More about our weather records

Advertising

Abbotsford weather history for previous 24 hours

 ConditionsComfort  
Time TempWeatherWind HumidityBarometerVisibility
2:00 PM
Tue, Sep 1
59 °FSprinkles. Fog.6 mph88%29.81 "Hg6 mi
1:00 PM61 °FSprinkles. Mostly cloudy.10 mph83%29.82 "Hg15 mi
12:00 PM61 °FOvercast.7 mph77%29.82 "Hg20 mi
11:00 AM61 °FLight rain. Overcast.9 mph88%29.83 "Hg15 mi
10:00 AM61 °FOvercast.8 mph88%29.82 "Hg20 mi
9:00 AM61 °FCloudy.8 mph88%29.83 "Hg15 mi
8:00 AM59 °FMostly cloudy.6 mph94%29.83 "Hg15 mi
7:00 AM59 °FMostly cloudy.9 mph94%29.82 "Hg15 mi
6:00 AM59 °FMostly cloudy.8 mph94%29.82 "Hg10 mi
5:00 AM57 °FLight rain. Mostly cloudy.8 mph100%29.82 "Hg10 mi
4:00 AM59 °FLight rain. Overcast.10 mph94%29.83 "Hg10 mi
3:00 AM59 °FRain. Mostly cloudy.12 mph94%29.82 "Hg6 mi
2:00 AM59 °FRain. Overcast.10 mph94%29.81 "Hg4 mi
1:00 AM59 °FLight rain. Overcast.15 mph94%29.81 "Hg4 mi
12:00 AM59 °FLight rain. Mostly cloudy.12 mph94%29.81 "Hg10 mi
11:00 PM
Mon, Aug 31
61 °FLight rain. Mostly cloudy.16 mph88%29.81 "Hg10 mi
10:00 PM59 °FLight rain. Overcast.10 mph94%29.82 "Hg10 mi
9:00 PM61 °FLight rain. Overcast.14 mph88%29.82 "Hg6 mi
8:00 PM61 °FLight rain. More clouds than sun.13 mph88%29.82 "Hg10 mi
7:00 PM59 °FLight rain. More clouds than sun.6 mph100%29.84 "Hg10 mi
6:00 PM61 °FLight rain. Cloudy.13 mph88%29.86 "Hg10 mi
5:00 PM59 °FLight rain. Fog.12 mph100%29.87 "Hg5 mi
4:00 PM59 °FLight rain. Fog.12 mph100%29.87 "Hg5 mi
3:00 PM61 °FLight rain. Fog.12 mph88%29.87 "Hg6 mi
Weather by CustomWeather, © 2015

See weather overviewHow to use our weather pages